Regional Weather Roundup
Issued by NWS

Home | Current Version | Previous Version | Graphics & Text | Print | Product List | Glossary On
Versions: 1 2 3 4 5 6 7 8 9 10 11 12 13 14 15 16 17 18 19 20 21 22 23 24 25 26 27 28 29 30 31 32 33 34 35 36 37 38 39 40 41 42 43 44 45 46 47 48 49 50
000
ASUS43 KIND 311559
RWRIN

WEATHER ROUNDUP FOR INDIANA
NATIONAL WEATHER SERVICE INDIANAPOLIS IN
1200 PM EDT FRI JUL 31 2015

NOTE: "FAIR" INDICATES FEW OR NO CLOUDS BELOW 12,000 FEET WITH NO
SIGNIFICANT WEATHER AND/OR OBSTRUCTIONS TO VISIBILITY.

* - STATION DOES NOT REPORT WEATHER SUCH AS PRECIPITATION OR FOG.

+ - STATION NOT QUALITY CONTROLLED BY THE NATIONAL WEATHER SERVICE.
    USE DATA WITH CAUTION...ESPECIALLY DEWPOINT AND RELATIVE
    HUMIDITY OBSERVATIONS.

INZ001>003-010>013-019-020-311700-
NORTHWEST INDIANA

CITY           SKY/WX    TMP DP  RH WIND       PRES   REMARKS
GARY /AIRPORT/ MOSUNNY   86  64  48 W17       30.00F
KNOX *+        MOSUNNY   79  63  57 SW10G16   30.00F
MONTICELLO +   SUNNY     82  66  57 W10       30.03F
RENSSELAER +   SUNNY     82  70  65 W12G17    30.03F

$$

LMZ046-743>745-311700-
SOUTHERN LAKE MICHIGAN

STATION/POSITION TIME  TEMP    WIND        PRES    WAVE
                       AIR SEA DIR/SP/G            HT
                 (UTC) (F)     (DEG/KT/KT) (MB)    (FT)
BURNS HARBOR     1500   78     240/  9/ 13 1016.3F
MICHIGAN CITY    1500   76     210/ 13/ 15   N/A
5NW MICH CITY    1500   75 73  250/ 12/ 14   N/A     2

$$

INZ004-005-014>016-021>024-311700-
NORTH CENTRAL INDIANA

CITY           SKY/WX    TMP DP  RH WIND       PRES   REMARKS
ELKHART        MOSUNNY   82  59  44 SW10      29.99F
GOSHEN         CLOUDY    80  61  52 W12       30.00F
PERU/GRISSOM   SUNNY     82  62  50 W12       30.03F
SOUTH BEND     SUNNY     84  63  49 SW13      29.99F
WARSAW +       PTSUNNY   81  61  50 W10G18    30.02F

$$

INZ006>009-017-018-025>027-311700-
NORTHEAST INDIANA

CITY           SKY/WX    TMP DP  RH WIND       PRES   REMARKS
ANGOLA *+      SUNNY     82  63  51 W10       29.99S
FORT WAYNE     SUNNY     83  61  47 W12G21    30.02F

$$

INZ028-029-035-036-043>045-051>053-311700-
WEST CENTRAL INDIANA

CITY           SKY/WX    TMP DP  RH WIND       PRES   REMARKS
CRAWFORDSVL +  SUNNY     80  58  48 W5          N/A
GREENCASTLE +  SUNNY     81  54  39 CALM      30.09S
LAFAYETTE      MOSUNNY   81  64  56 W12       30.05S
TERRE HAUTE    SUNNY     85  59  41 CALM      30.09S

$$

INZ030>032-037>040-046>048-054>057-064-065-311700-
CENTRAL INDIANA

CITY           SKY/WX    TMP DP  RH WIND       PRES   REMARKS
ANDERSON       SUNNY     82  54  36 NW8       30.07R
GREENWOOD *+   SUNNY     84  54  34 NW3       30.07F
INDIANAPOLIS   MOSUNNY   84  57  39 NW8       30.06S
-EAGLE CREEK   SUNNY     83  59  44 NW10      30.06F
KOKOMO *+      SUNNY     82  61  47 W13       30.04F
MT COMFORT *+  SUNNY     84  48  28 NW9       30.07S
SHELBYVILLE    SUNNY     84  62  47 NW8       30.06F

$$

INZ033-034-041-042-049-050-058-059-311700-
EAST CENTRAL INDIANA

CITY           SKY/WX    TMP DP  RH WIND       PRES   REMARKS
MUNCIE         SUNNY     81  60  48 NW8       30.05S

$$

INZ060-061-067>069-081>083-085>088-311700-
SOUTHWEST INDIANA

CITY           SKY/WX    TMP DP  RH WIND       PRES   REMARKS
EVANSVILLE     SUNNY     86  67  52 N6        30.10S
HUNTINGBURG *+ SUNNY     82  64  54 NW3       30.10S

$$

INZ062-063-066-070>080-084-089>092-311700-
SOUTH CENTRAL AND SOUTHEAST INDIANA

CITY           SKY/WX    TMP DP  RH WIND       PRES   REMARKS
BLOOMINGTON    SUNNY     83  62  49 N5        30.09S
SEYMOUR +      SUNNY     84  63  48 N3        30.08S

$$



USA.gov is the U.S. government's official web portal to all federal, state and local government web resources and services.